Location: Wanzleben
(52.0609°N, 11.4408°E)
Time: 07:27:25
(UTC+00:00)

Cosmos 2285 Rocket - Pass Details

Date: 18 September 2020
Orbit: 970 x 1000 km, 74.0° (Epoch: 22 October)

Event Time Altitude Azimuth Distance (km) Brightness Sun altitude
Rises 19:33:30 0° 189° (S) 3,654 6.8 -20.1°
Reaches altitude 10° 19:36:03 10° 186° (S) 2,713 6.1 -20.5°
Maximum altitude 19:42:13 61° 108° (ESE) 1,104 3.9 -21.3°
Drops below altitude 10° 19:48:27 10° 30° (NNE) 2,748 6.4 -22.1°
Sets 19:51:03 0° 27° (NNE) 3,704 7.1 -22.4°
